Reflectivity
-20 -20 -20 -20 -20 -20 -20 -20 -20 -20 -20 -20 -20 -20 -20 -20 -20 -20 -20 -20 -20 -20 -20 -20 -20 -9 -2 13 -13 -20 -20 -20 -4 16 14 8 6 13 16 7 -12 15 17 15 10 -2 -20 4 3
-20 -20 -20 -20 -20 -20 -20 -20 -20 -20 -20 -20 -20 -20 -20 -20 -20 -20 -20 -20 -20 -20 -20 -20 -20 -20 -20 -19 -20 -20 -4 -19 7 14 8 -0 7 13 9 -0 -0 -1 13 14 1 -20 -20 -20 -20
-20 -20 -20 -20 -20 -20 -20 -20 -20 -20 -20 -20 -20 -20 -20 -20 -20 -20 -20 -20 -20 -20 -20 -20 -20 -20 -12 6 -20 -20 13 15 13 13 11 -20 11 -11 -20 -20 -20 -20 -18 -20 -20 -20 -20 -20 -20
-20 -20 -20 -20 -20 -20 -20 -20 -20 -20 -20 -20 -20 -20 -20 -20 -20 -20 -20 -20 -20 -20 -20 -20 -20 -20 -16 -6 0 -10 16 -20 0 10 11 -0 -20 -20 -20 -20 -20 -20 -20 -20 -20 -20 -20 -20 -20
-20 -20 -20 -20 -20 -20 -20 -20 -20 -20 -20 -20 -20 -20 -20 -20 -20 -20 -20 -20 -20 -20 -20 -20 -20 -20 -0 -2 -6 -14 -20 -20 11 -18 -16 -20 -20 -20 -20 -20 -20 -20 -20 -20 -20 -20 -20 -20 -20
-20 -20 -20 -20 -20 -20 -20 -20 -20 -20 -20 -20 -20 -20 -20 -20 -20 -20 -20 -20 -20 -20 -20 -20 -20 -20 -20 6 -1 -20 -20 -20 -20 -3 -20 -20 -20 -20 -20 -20 -20 -20 -20 -20 -20 -20 -20 -20 -20
-20 -20 -20 -20 -20 -20 -20 -20 -20 -20 -20 -20 -20 -20 -20 -20 -20 -20 -20 -20 -20 -20 -20 -20 -20 -20 -20 -20 -20 -20 -20 -20 -20 -20 -20 -20 -20 -20 -20 -20 -20 -20 -20 -20 -20 -20 -20 -20 -20
-20 -20 -20 -20 -20 -20 -20 -20 -20 -20 -20 -20 -20 -20 -20 -20 -20 -20 -20 -20 -20 -20 -20 -20 -20 -20 -20 -20 -20 -20 -20 -20 -20 -20 -20 -20 -20 -20 -20 -20 -20 -20 -20 -20 -20 -20 -20 -20 -20
-20 -20 -20 -20 -20 -20 -20 -20 -20 -20 -20 -20 -20 -20 -20 -20 -20 -20 -20 -20 -20 -20 -20 -20 -20 -20 -20 -20 -20 -20 -20 -20 -20 -20 -20 -20 -20 -20 -20 -20 -20 -20 -20 -20 -20 -20 -20 -20 -20
-20 -20 -20 -20 -20 -20 -20 -20 -20 -20 -20 -20 -20 -20 -20 -20 -20 -20 -20 -20 -20 -20 -20 -20 -20 -20 -20 -20 -20 -20 -20 -20 -20 -20 -20 -20 -20 -20 -20 -20 -20 -20 -20 -20 -20 -20 -20 -20 -20
-20 -20 -20 -20 -20 -20 -20 -20 -20 -20 -20 -20 -20 -20 -20 -20 -20 -20 -20 -20 -20 -20 -20 -20 -20 -20 -20 -20 -20 -20 -20 -20 -20 -20 -20 -20 -20 -20 -20 -20 -20 -20 -20 -20 -20 -20 -20 -20 -20
-20 -20 -20 -20 -20 -20 -20 -20 -20 -20 -20 -20 -20 -20 -20 -20 -20 -20 -20 -20 -20 -20 -20 -20 -20 -20 -20 -20 -20 -20 -20 -20 -20 -20 -20 -20 -20 -20 -20 -20 -20 -20 -20 -20 -20 -20 -20 -20 -20
-20 -20 -20 -20 -20 -20 -20 -20 -20 -20 -20 -20 -20 -20 -20 -20 -20 -20 -20 -20 -20 -20 -20 -20 -20 -20 -20 -20 -20 -20 -20 -20 -20 -20 -20 -20 -20 -20 -20 -20 -20 -20 -20 -20 -20 -20 -20 -20 -20
-20 -20 -20 -20 -20 -20 -20 -20 -20 -20 -20 -20 -20 -20 -20 -20 -20 -20 -20 -20 -20 -20 -20 -20 -20 -20 -20 -20 -20 -20 -20 -20 -20 -20 -20 -20 -20 -20 -20 -20 -20 -20 -20 -20 -20 -20 -20 -20 -20
-20 -20 -20 -20 -20 -20 -20 -20 -20 -20 -20 -20 -20 -20 -20 -20 -20 -20 -20 -20 -20 -20 -20 -20 -20 -20 -20 -20 -20 -20 -20 -20 -20 -20 -20 -20 -20 -20 -20 -20 -20 -20 -20 -20 -20 -20 -20 -20 -20
-20 -20 -20 -20 -20 -20 -20 -20 -20 -20 -20 -20 -20 -20 -20 -20 -20 -20 -20 -20 -20 -20 -20 -20 -20 -20 -20 -20 -20 -20 -20 -20 -20 -20 -20 -20 -20 -20 -20 -20 -20 -20 -20 -20 -20 -20 -20 -20 -20
-20 -20 -20 -20 -20 -20 -20 -20 -20 -20 -20 -20 -20 -20 -20 -20 -20 -20 -20 -20 -20 -20 -20 -20 -20 -20 -20 -20 -20 -20 -20 -20 -20 -20 -20 -20 -20 -20 -20 -20 -20 -20 -20 -20 -20 -20 -20 -20 -20
-20 -20 -20 -20 -20 -20 -20 -20 -20 -20 -20 -20 -20 -20 -20 -20 -20 -20 -20 -20 -20 -20 -20 -20 -20 -20 -20 -20 -20 -20 -20 -20 -20 -20 -20 -20 -20 -20 -20 -20 -20 -20 -20 -20 -20 -20 -20 -20 -20
-20 -20 -20 -20 -20 -20 -20 -20 -20 -20 -20 -20 -20 -20 -20 -20 -20 -20 -20 -20 -20 -20 -20 -20 -20 -20 -20 -20 -20 -20 -20 -20 -20 -20 -20 -20 -20 -20 -20 -20 -20 -20 -20 -20 -20 -20 -20 -20 -20
-20 -20 -20 -20 -20 -20 -20 -20 -20 -20 -20 -20 -20 -20 -20 -20 -20 -20 -20 -20 -20 -20 -20 -20 -20 -20 -20 -20 -20 -20 -20 -20 -20 -20 -20 -20 -20 -20 -20 -20 -20 -20 -20 -20 -20 -20 -20 -20 -20
-20 -20 -20 -20 -20 -20 -20 -20 -20 -20 -20 -20 -20 -20 -20 -20 -20 -20 -20 -20 -20 -20 -20 -20 -20 -20 -20 -20 -20 -20 -20 -20 -20 -20 -20 -20 -20 -20 -20 -20 -20 -20 -20 -20 -20 -20 -20 -20 -20
-20 -20 -20 -20 -20 -20 -20 -20 -20 -20 -20 -20 -20 -20 -20 -20 -20 -20 -20 -20 -20 -20 -20 -20 -20 -20 -20 -20 -20 -20 -20 -20 -20 -20 -20 -20 -20 -20 -20 -20 -20 -20 -20 -20 -20 -20 -20 -20 -20
-20 -20 -20 -20 -20 -20 -20 -20 -20 -20 -20 -20 -20 -20 -20 -20 -20 -20 -20 -20 -20 -20 -20 -20 -20 -20 -20 -20 -20 -20 -20 -20 -20 -20 -20 -20 -20 -20 -20 -20 -20 -20 -20 -20 -20 -20 -20 -20 -20
-20 -20 -20 -20 -20 -20 -20 -20 -20 -20 -20 -20 -20 -20 -20 -20 -20 -20 -20 -20 -20 -20 -20 -20 -20 -20 -20 -20 -20 -20 -20 -20 -20 -20 -20 -20 -20 -20 -20 -20 -20 -20 -20 -20 -20 -20 -20 -20 -20
-20 -20 -20 -20 -20 -20 -20 -20 -20 -20 -20 -20 -20 -20 -20 -20 -20 -20 -20 -20 -20 -20 -20 -20 -20 -20 -20 -20 -20 -20 -20 -20 -20 -20 -20 -20 -20 -20 -20 -20 -20 -20 -20 -20 -20 -20 -20 -20 -20
-20 -20 -20 -2 -9 -20 -20 -20 -20 -20 -20 -20 -20 -20 -20 -20 -20 -20 -20 -20 -20 -20 -20 -20 -20 -20 -20 -20 -20 -20 -20 -20 -20 -20 -20 -20 -20 -20 -20 -20 -20 -20 -20 -20 -20 -20 -20 -20 -20
-20 -20 -20 3 10 13 -7 -20 -20 -20 -20 -20 -20 -20 -20 -20 -20 -20 -20 -20 -20 -20 -20 -20 -20 -20 -20 -20 -20 -20 -20 -20 -20 -20 -20 -20 -20 -20 -20 -20 -20 -20 -20 -20 -20 -20 -20 -20 -20
-20 -20 -20 -20 -20 -16 -20 -20 -20 -20 -20 -20 -20 -20 -20 -20 -20 -20 -20 -20 -20 -20 -20 -20 -20 -20 -20 -20 -20 -20 -20 -20 -20 -20 -20 -20 -20 -20 -20 -20 -20 -20 -20 -20 -20 -20 -20 -20 -20
-20 -20 -17 -6 3 4 -3 -2 -11 -20 -20 -20 -20 -20 -20 -20 -20 -20 -20 -20 -20 -20 -20 -20 -20 -20 -20 -20 -20 -20 -20 -20 -20 -20 -20 -20 -20 -20 -20 -20 -20 -20 -20 -20 -20 -20 -20 -20 -20
-20 -20 -20 -18 -18 -15 -14 8 -12 -20 -20 -20 -20 -20 -20 -20 -20 -20 -20 -20 -20 -20 -20 -20 -20 -20 -20 -20 -20 -20 -20 -20 -20 -20 -20 -20 -20 -20 -20 -20 -20 -20 -20 -20 -20 -20 -20 -20 -20
Wind_Speed
2 2 3 5 5 6 4 6 3 3 2 2 7 5 8 4 7 7 4 8 3 10 7 7 11 14 14 14 14 14 14 14 12 11 10 10 10 8 6 7 7 10 12 12 12 10 10 11 9
1 1 5 3 5 2 6 4 6 6 2 2 2 2 1 7 3 5 1 8 7 9 7 7 10 11 11 13 13 13 14 13 12 12 10 10 10 10 9 5 5 6 9 9 8 9 9 9 10
1 4 4 5 4 5 5 6 5 2 1 2 2 1 2 5 3 4 6 9 7 7 6 6 9 12 10 13 13 12 13 16 13 10 9 10 9 8 8 8 8 8 8 8 8 9 9 9 10
3 5 5 4 7 8 7 6 3 2 2 4 1 6 5 4 5 5 6 9 8 7 7 9 12 13 12 10 12 10 11 12 12 11 12 12 10 10 9 8 9 10 9 8 9 9 10 10 11
5 4 3 2 5 7 6 6 4 3 2 2 3 5 5 3 2 4 7 9 9 6 5 5 12 13 16 16 14 14 13 13 14 13 11 12 11 9 8 8 9 9 9 9 9 10 10 11 11
5 4 3 4 6 6 7 5 3 3 2 1 2 2 7 2 2 5 5 7 7 8 6 5 9 10 12 15 15 15 15 14 15 14 13 12 11 10 9 9 10 10 10 10 11 11 10 10 10
6 4 3 3 5 7 4 4 3 3 1 6 2 2 6 4 6 7 7 6 5 5 6 5 6 7 9 11 12 14 15 15 15 15 14 12 12 11 10 10 11 11 11 11 10 10 10 10 10
6 5 1 4 2 7 3 2 2 5 6 2 4 6 7 1 6 7 5 4 6 6 6 6 5 6 6 5 10 9 12 12 13 12 11 11 9 10 10 7 11 12 13 12 11 11 10 10 10
3 4 3 6 5 6 2 1 2 1 3 3 8 6 4 3 7 6 3 2 4 5 7 7 7 6 6 6 6 9 12 11 11 10 12 9 4 5 6 5 11 13 13 12 12 11 10 10 10
5 4 8 6 5 5 3 4 5 1 5 6 6 7 3 5 5 8 9 12 10 11 11 8 7 7 7 5 6 6 6 5 6 6 7 5 5 5 5 4 8 10 11 11 11 11 10 7 3
5 7 6 6 8 5 4 4 4 5 8 11 10 9 6 7 8 10 12 13 19 16 9 12 9 7 7 5 4 3 3 4 4 7 7 6 4 3 3 3 3 4 6 4 5 5 4 5 3
3 8 7 4 4 2 5 6 6 8 21 8 14 8 5 10 12 16 15 16 15 13 14 11 10 9 8 5 5 5 5 4 5 5 7 5 4 4 5 4 4 3 3 4 4 3 4 4 4
5 5 6 7 4 8 6 14 8 10 20 8 8 9 12 10 13 11 14 13 9 13 14 14 12 13 10 8 5 5 6 6 6 6 7 6 6 5 5 5 4 4 3 4 4 4 4 4 4
2 4 7 5 6 7 8 19 5 13 7 13 6 13 12 12 15 7 10 18 15 15 16 14 17 16 13 13 11 9 7 6 5 5 7 8 5 6 5 5 4 4 3 3 3 3 4 3 3
3 8 9 6 6 8 7 11 12 21 3 14 14 12 11 14 9 18 20 18 19 18 14 19 18 16 17 17 12 9 7 6 7 7 7 8 7 7 7 5 5 4 3 5 4 3 3 3 1
3 1 5 2 4 4 8 11 23 7 6 13 14 11 11 14 12 16 16 17 14 14 19 16 16 19 18 17 13 9 9 9 8 7 7 9 8 8 7 5 5 5 4 4 4 3 2 2 2
3 7 8 11 11 6 9 11 15 6 6 10 13 14 12 19 18 14 16 15 12 17 16 17 18 20 20 15 11 11 10 9 7 6 7 9 9 8 7 6 5 6 5 4 4 2 2 1 1
9 6 7 7 8 6 6 18 14 16 12 18 18 20 20 21 27 20 11 11 11 13 16 15 15 17 17 11 8 5 5 6 5 7 8 9 8 9 8 6 7 6 5 4 3 3 3 2 0
3 6 12 8 8 4 20 23 18 16 13 26 22 18 21 20 22 19 9 9 9 8 11 15 15 15 14 12 12 8 13 9 8 9 11 11 9 10 9 6 7 6 7 6 6 4 4 1 1
6 11 18 14 15 6 14 22 18 20 20 21 24 24 17 17 19 21 7 7 9 11 13 13 15 15 16 13 11 4 10 7 8 7 8 10 10 10 10 10 9 9 6 7 7 6 4 2 2
4 7 17 14 7 6 10 14 8 10 8 13 19 21 9 14 20 21 7 8 9 10 13 15 16 17 15 13 8 4 6 4 4 4 6 9 13 13 12 12 10 10 8 8 7 6 6 5 2
15 12 13 10 6 7 5 19 6 9 10 9 15 8 13 12 9 10 10 8 10 11 8 9 9 12 14 17 15 15 10 10 9 11 9 10 13 13 13 12 11 11 7 7 7 5 4 5 5
12 5 7 4 5 5 1 4 2 4 7 11 9 8 7 9 8 11 11 10 9 6 9 8 12 12 13 15 17 15 14 9 4 5 10 10 9 11 11 11 10 10 8 7 9 7 7 4 5
2 2 5 5 2 7 10 9 18 4 4 2 8 14 10 10 12 13 7 8 9 5 2 7 10 11 10 12 13 16 15 8 9 8 10 9 8 8 11 12 12 11 10 10 9 7 8 6 4
3 4 4 4 1 11 3 3 15 11 15 8 10 9 7 9 10 11 11 11 9 4 1 3 6 7 9 12 12 12 13 13 15 13 12 13 10 9 13 14 13 10 11 10 9 8 7 7 5
9 11 8 8 6 12 4 8 19 7 8 11 6 7 6 10 8 11 11 8 9 6 4 7 8 7 8 10 11 9 8 6 7 9 8 10 11 12 12 12 11 11 11 10 9 6 5 6 5
4 6 4 3 5 3 13 15 15 17 7 3 2 6 8 10 9 9 11 7 7 6 6 6 7 7 8 10 8 9 11 10 10 10 9 9 9 8 12 15 14 12 13 13 12 8 9 8 6
7 3 2 1 4 9 7 15 13 23 26 6 9 10 13 9 9 10 14 14 10 7 6 7 7 7 4 7 9 10 11 12 10 10 13 12 12 11 13 15 15 14 12 12 13 9 9 11 8
2 4 4 2 6 13 19 14 11 22 22 10 11 12 15 18 18 18 17 16 16 13 10 8 6 6 7 5 6 7 6 7 7 10 12 13 10 13 14 16 15 16 16 14 13 12 12 13 11
6 12 7 12 11 10 11 10 12 13 16 20 20 16 17 18 19 17 14 14 15 15 16 17 13 9 9 7 7 8 8 8 8 10 11 12 14 14 16 16 15 16 17 16 17 16 14 15 14
Wind_Direction
5 20 69 42 49 59 271 264 270 262 250 176 123 148 195 178 170 211 310 199 183 152 167 167 164 180 181 180 172 177 188 172 166 155 148 144 122 97 77 88 78 84 86 78 73 68 54 56 56
348 159 45 78 90 52 267 249 239 233 267 109 136 147 229 251 243 274 165 206 181 155 158 162 164 163 174 178 173 178 175 163 146 132 128 119 116 122 108 111 105 98 94 92 97 90 83 71 64
93 39 83 96 117 192 226 222 244 269 204 178 275 220 231 234 238 232 217 164 153 152 153 159 162 171 176 166 166 180 171 156 141 140 160 166 165 154 152 147 135 127 114 110 101 93 83 78 73
49 11 35 100 224 249 219 250 229 290 241 228 199 278 280 228 179 198 154 155 149 158 153 165 168 179 175 177 169 173 167 160 161 176 188 173 162 155 153 140 129 121 121 112 98 91 87 82 76
35 54 53 309 259 265 253 258 190 220 268 192 163 265 257 254 18 140 151 153 159 156 157 164 174 184 189 189 183 184 183 176 182 184 171 162 158 153 144 140 128 124 115 105 98 89 84 79 74
39 93 38 261 264 273 279 258 168 209 226 229 196 293 245 312 179 185 157 159 149 155 163 175 181 189 186 195 194 188 187 180 178 176 169 164 159 157 152 143 132 122 113 106 94 90 86 78 75
113 89 229 254 264 304 260 141 201 213 237 257 153 243 265 285 211 154 147 130 141 156 161 177 173 170 179 190 181 187 180 177 177 172 172 165 163 161 151 146 138 130 121 109 99 90 84 78 71
110 96 270 249 263 272 315 222 236 177 257 62 177 241 264 336 129 110 106 138 165 176 183 185 181 169 171 177 173 181 171 170 172 169 160 152 154 149 145 151 141 136 129 121 113 106 100 85 74
126 64 242 252 184 249 197 259 225 139 267 220 208 216 233 98 121 105 115 192 214 225 205 190 184 180 173 171 176 170 164 165 163 151 133 111 110 108 115 177 147 142 136 127 118 112 102 89 76
111 142 228 213 208 245 282 202 267 268 256 257 273 260 163 143 171 173 183 202 209 214 212 202 191 185 173 171 175 161 156 150 141 136 126 129 144 148 154 136 136 136 131 125 117 108 96 84 71
178 209 216 244 225 262 270 282 219 167 275 227 222 242 197 182 203 208 216 206 210 209 203 200 194 182 176 183 169 159 153 144 147 150 147 147 146 143 112 85 63 61 81 63 89 86 72 77 66
230 244 225 246 201 289 266 303 261 180 256 222 224 234 174 203 209 213 216 216 210 200 207 197 192 187 190 171 180 170 166 162 165 167 155 152 154 157 149 141 151 146 144 123 114 115 119 103 87
219 241 248 244 270 262 299 264 238 241 257 260 256 245 237 228 224 226 228 233 208 214 206 198 188 194 191 188 178 177 186 180 172 167 169 160 166 164 150 157 160 160 151 150 142 138 121 106 97
226 257 270 290 243 239 209 269 148 256 275 280 219 252 242 231 234 224 220 231 213 216 207 192 198 194 186 195 190 193 185 174 170 173 178 173 165 158 163 160 168 165 160 140 135 135 114 89 68
303 312 314 213 244 233 167 296 230 251 262 268 275 265 268 238 219 227 233 227 217 215 203 200 195 193 194 197 193 189 184 173 181 185 175 175 172 170 165 159 162 167 147 132 131 106 100 108 127
306 177 304 9 128 262 154 256 273 249 240 268 275 278 277 274 242 234 235 232 213 206 202 192 191 192 197 198 191 189 182 183 187 182 176 179 177 168 160 155 166 150 151 154 147 139 121 111 79
332 249 224 301 214 195 184 253 255 283 199 259 273 272 270 274 270 245 235 232 213 210 202 197 189 193 195 196 188 188 180 188 187 173 179 181 179 168 162 161 157 153 154 166 154 112 130 116 36
233 236 253 244 276 180 229 252 273 286 286 263 264 275 272 268 264 274 246 222 217 207 203 196 191 193 186 179 168 155 163 184 159 182 186 178 180 169 158 155 154 154 153 165 160 137 64 109 47
181 237 251 263 263 298 278 276 269 269 274 278 276 267 267 266 278 274 253 219 213 202 194 196 186 187 170 174 173 179 196 184 190 188 186 183 177 172 168 161 158 162 172 174 163 126 142 55 15
249 269 271 276 262 248 272 272 277 263 252 254 269 277 277 287 288 283 271 222 206 208 200 191 192 181 185 184 187 174 183 196 195 179 180 178 170 171 172 170 176 174 161 167 175 158 143 130 35
206 233 264 266 303 253 299 278 234 275 248 257 262 263 281 261 274 291 329 244 242 222 200 197 193 183 181 174 155 81 84 65 121 171 182 185 180 178 177 177 174 176 173 181 182 169 165 144 55
263 225 256 271 350 277 3 296 174 233 263 275 268 279 264 285 291 281 290 263 237 242 202 184 176 180 180 169 172 179 187 182 202 193 192 190 186 180 177 177 176 178 174 171 177 172 175 134 154
239 175 236 190 202 319 276 285 106 101 229 272 295 276 282 315 305 299 290 280 260 226 191 182 162 170 184 188 184 183 192 188 145 146 168 179 184 184 180 177 171 174 177 174 170 171 175 179 148
110 97 57 45 94 281 186 177 300 158 242 273 316 319 331 329 322 311 304 306 303 359 178 157 165 165 172 187 194 198 197 153 151 160 170 173 176 179 185 179 182 181 176 175 179 177 174 180 156
138 77 316 331 25 231 89 151 254 293 280 265 278 278 301 326 315 324 336 348 342 339 165 136 151 167 165 184 195 201 198 182 183 175 179 171 176 193 202 188 183 181 180 177 167 173 176 172 175
183 170 174 218 249 282 94 243 265 246 277 260 272 264 324 324 345 347 343 353 336 321 171 166 176 179 180 186 197 191 196 193 198 186 178 182 188 189 175 188 186 183 176 172 170 168 169 162 167
180 180 235 316 265 252 265 274 300 291 303 0 332 336 338 333 332 334 334 354 353 310 260 209 200 198 186 194 193 198 185 185 193 177 175 188 190 180 171 180 181 184 179 174 170 175 171 166 164
181 211 232 347 251 248 228 256 269 290 289 308 323 351 334 292 324 347 5 7 19 352 334 328 317 289 255 217 211 211 215 205 185 178 196 184 182 170 174 181 182 180 185 180 176 174 167 167 173
195 236 222 232 203 259 266 256 255 272 298 15 353 337 7 20 17 16 13 16 11 7 2 343 332 317 294 277 274 258 251 224 197 201 198 194 177 176 179 183 185 181 184 185 183 180 172 180 174
195 252 239 239 251 244 268 263 298 326 340 22 39 22 3 11 6 4 8 5 10 12 13 8 347 335 315 275 247 234 227 214 215 222 214 188 185 182 183 182 185 188 189 185 188 183 181 180 180